When you browse on this site, cookies collect data to enhance your experience and personalize the content and advertising you see.
Visit our Privacy Policy to learn more. By continuing to use the site, you agree to this use of cookies and data.
  • In Belgien
  • Länderverzeichnis
  • Für 7 Tage
  • Wassertemperatur
  • Wetterkarte
  • Widgets
  • user-avatar
    Anmelden

    Stündliche Wetter Gomel

    Heute, 28 Mai, Donnerstag

    Zeit Temperatur Niederschläge Wind Luftdruck Luftfeuchtigkeit
    00:00 +10°C° 0 mm 1 m/S 756 mmHg 87%
    01:00 +10°C° 0 mm 1 m/S 756 mmHg 88%
    02:00 +10°C° 0 mm 1 m/S 756 mmHg 88%
    03:00 +10°C° 0 mm 1 m/S 756 mmHg 88%
    04:00 +10°C° 0 mm 1 m/S 755 mmHg 89%
    05:00 +10°C° 0 mm 1 m/S 755 mmHg 89%
    06:00 +12°C° 0 mm 2 m/S 755 mmHg 84%
    07:00 +14°C° 0 mm 2 m/S 755 mmHg 79%
    08:00 +16°C° 0 mm 2 m/S 755 mmHg 74%
    09:00 +17°C° 0 mm 3 m/S 755 mmHg 70%
    10:00 +18°C° 0 mm 3 m/S 754 mmHg 66%
    11:00 +19°C° 0 mm 4 m/S 754 mmHg 62%
    12:00 +19°C° 0.2 mm 4 m/S 754 mmHg 63%
    13:00 +19°C° 0.2 mm 4 m/S 753 mmHg 64%
    14:00 +18°C° 0.2 mm 4 m/S 753 mmHg 65%
    15:00 +17°C° 0.1 mm 5 m/S 752 mmHg 69%
    16:00 +16°C° 0.1 mm 5 m/S 752 mmHg 73%
    17:00 +15°C° 0.1 mm 5 m/S 751 mmHg 77%
    18:00 +14°C° 0.8 mm 5 m/S 751 mmHg 81%
    19:00 +13°C° 0.8 mm 6 m/S 750 mmHg 86%
    20:00 +11°C° 0.8 mm 6 m/S 749 mmHg 90%
    21:00 +11°C° 2.8 mm 7 m/S 749 mmHg 92%
    22:00 +11°C° 2.8 mm 7 m/S 748 mmHg 93%
    23:00 +11°C° 2.8 mm 8 m/S 748 mmHg 94%

    Morgen, 29 Mai, Freitag

    Zeit Temperatur Niederschläge Wind Luftdruck Luftfeuchtigkeit
    00:00 +11°C° 0.9 mm 7 m/S 747 mmHg 95%
    01:00 +11°C° 0.9 mm 6 m/S 747 mmHg 96%
    02:00 +13°C° 0.9 mm 5 m/S 746 mmHg 96%
    03:00 +13°C° 0.3 mm 4 m/S 746 mmHg 97%
    04:00 +13°C° 0.3 mm 3 m/S 746 mmHg 97%
    05:00 +13°C° 0.3 mm 3 m/S 745 mmHg 98%
    06:00 +14°C° 0 mm 3 m/S 745 mmHg 94%
    07:00 +17°C° 0 mm 3 m/S 745 mmHg 90%
    08:00 +18°C° 0 mm 3 m/S 745 mmHg 86%
    09:00 +18°C° 0.3 mm 4 m/S 745 mmHg 83%
    10:00 +18°C° 0.3 mm 4 m/S 745 mmHg 79%
    11:00 +19°C° 0.3 mm 5 m/S 745 mmHg 75%
    12:00 +17°C° 0.1 mm 5 m/S 745 mmHg 73%
    13:00 +18°C° 0.1 mm 4 m/S 745 mmHg 72%
    14:00 +18°C° 0.1 mm 4 m/S 745 mmHg 70%
    15:00 +19°C° 0 mm 4 m/S 745 mmHg 70%
    16:00 +19°C° 0 mm 3 m/S 745 mmHg 70%
    17:00 +19°C° 0 mm 3 m/S 745 mmHg 71%
    18:00 +18°C° 0 mm 3 m/S 745 mmHg 77%
    19:00 +17°C° 0 mm 3 m/S 745 mmHg 84%
    20:00 +15°C° 0 mm 2 m/S 745 mmHg 91%
    21:00 +15°C° 0 mm 2 m/S 745 mmHg 91%
    22:00 +14°C° 0 mm 2 m/S 745 mmHg 92%
    23:00 +13°C° 0 mm 2 m/S 745 mmHg 93%

    übermorgen, 30 Mai, Samstag

    Zeit Temperatur Niederschläge Wind Luftdruck Luftfeuchtigkeit
    00:00 +14°C° 0 mm 2 m/S 745 mmHg 93%
    01:00 +14°C° 0 mm 2 m/S 745 mmHg 92%
    02:00 +14°C° 0 mm 2 m/S 745 mmHg 92%
    03:00 +13°C° 0.1 mm 3 m/S 745 mmHg 94%
    04:00 +14°C° 0.1 mm 3 m/S 744 mmHg 95%
    05:00 +14°C° 0.1 mm 3 m/S 744 mmHg 97%
    06:00 +15°C° 0.7 mm 4 m/S 744 mmHg 96%
    07:00 +17°C° 0.7 mm 4 m/S 744 mmHg 95%
    08:00 +16°C° 0.7 mm 5 m/S 744 mmHg 95%
    09:00 +17°C° 0.5 mm 5 m/S 743 mmHg 93%
    10:00 +19°C° 0.5 mm 6 m/S 743 mmHg 90%
    11:00 +18°C° 0.5 mm 7 m/S 742 mmHg 88%
    12:00 +18°C° 1.7 mm 7 m/S 742 mmHg 90%
    13:00 +17°C° 1.7 mm 7 m/S 741 mmHg 91%
    14:00 +17°C° 1.7 mm 7 m/S 741 mmHg 93%
    15:00 +17°C° 0.7 mm 7 m/S 741 mmHg 91%
    16:00 +18°C° 0.7 mm 8 m/S 740 mmHg 90%
    17:00 +18°C° 0.7 mm 8 m/S 740 mmHg 89%
    18:00 +17°C° 1.3 mm 8 m/S 740 mmHg 89%
    19:00 +16°C° 1.3 mm 8 m/S 740 mmHg 90%
    20:00 +15°C° 1.3 mm 8 m/S 740 mmHg 91%
    21:00 +15°C° 0 mm 7 m/S 741 mmHg 91%
    22:00 +14°C° 0 mm 6 m/S 741 mmHg 92%
    23:00 +13°C° 0 mm 6 m/S 742 mmHg 92%

    31 Mai, Sonntag

    Zeit Temperatur Niederschläge Wind Luftdruck Luftfeuchtigkeit
    00:00 +13°C° 0 mm 5 m/S 742 mmHg 93%
    01:00 +12°C° 0 mm 4 m/S 742 mmHg 95%
    02:00 +11°C° 0 mm 3 m/S 743 mmHg 96%
    03:00 +12°C° 0 mm 3 m/S 743 mmHg 96%
    04:00 +12°C° 0 mm 3 m/S 743 mmHg 96%
    05:00 +13°C° 0 mm 2 m/S 743 mmHg 96%
    06:00 +14°C° 0.1 mm 2 m/S 744 mmHg 92%
    07:00 +15°C° 0.1 mm 2 m/S 744 mmHg 89%
    08:00 +16°C° 0.1 mm 2 m/S 744 mmHg 85%
    09:00 +17°C° 0.2 mm 2 m/S 744 mmHg 83%
    10:00 +17°C° 0.2 mm 3 m/S 745 mmHg 81%
    11:00 +18°C° 0.2 mm 3 m/S 745 mmHg 80%
    12:00 +18°C° 0.8 mm 3 m/S 745 mmHg 81%
    13:00 +18°C° 0.8 mm 4 m/S 745 mmHg 82%
    14:00 +18°C° 0.8 mm 4 m/S 745 mmHg 83%
    15:00 +17°C° 1 mm 5 m/S 745 mmHg 84%
    16:00 +17°C° 1 mm 5 m/S 745 mmHg 84%
    17:00 +17°C° 1 mm 6 m/S 745 mmHg 85%
    18:00 +16°C° 0.6 mm 6 m/S 746 mmHg 87%
    19:00 +15°C° 0.6 mm 6 m/S 746 mmHg 89%
    20:00 +15°C° 0.6 mm 6 m/S 746 mmHg 91%
    21:00 +14°C° 0.1 mm 6 m/S 747 mmHg 92%
    22:00 +14°C° 0.1 mm 6 m/S 747 mmHg 93%
    23:00 +12°C° 0.1 mm 7 m/S 748 mmHg 94%

    1 Juni, Montag

    Zeit Temperatur Niederschläge Wind Luftdruck Luftfeuchtigkeit
    00:00 +13°C° 0 mm 6 m/S 748 mmHg 94%
    01:00 +13°C° 0 mm 6 m/S 748 mmHg 93%
    02:00 +13°C° 0 mm 6 m/S 748 mmHg 93%
    03:00 +13°C° 0 mm 6 m/S 748 mmHg 93%
    04:00 +13°C° 0 mm 6 m/S 748 mmHg 93%
    05:00 +13°C° 0 mm 6 m/S 749 mmHg 92%
    06:00 +14°C° 0 mm 6 m/S 749 mmHg 90%
    07:00 +14°C° 0 mm 6 m/S 750 mmHg 88%
    08:00 +14°C° 0 mm 7 m/S 750 mmHg 86%
    09:00 +14°C° 0 mm 7 m/S 750 mmHg 85%
    10:00 +15°C° 0 mm 7 m/S 750 mmHg 84%
    11:00 +15°C° 0 mm 7 m/S 751 mmHg 82%
    12:00 +16°C° 0 mm 7 m/S 751 mmHg 79%
    13:00 +16°C° 0 mm 7 m/S 751 mmHg 76%
    14:00 +17°C° 0 mm 7 m/S 751 mmHg 73%
    15:00 +17°C° 0 mm 6 m/S 751 mmHg 73%
    16:00 +19°C° 0 mm 6 m/S 751 mmHg 72%
    17:00 +19°C° 0 mm 6 m/S 751 mmHg 71%
    18:00 +17°C° 0 mm 5 m/S 751 mmHg 75%
    19:00 +15°C° 0 mm 5 m/S 751 mmHg 79%
    20:00 +14°C° 0 mm 4 m/S 751 mmHg 83%
    21:00 +13°C° 0 mm 4 m/S 751 mmHg 83%
    22:00 +13°C° 0 mm 4 m/S 752 mmHg 83%
    23:00 +12°C° 0 mm 4 m/S 752 mmHg 84%

    2 Juni, Dienstag

    Zeit Temperatur Niederschläge Wind Luftdruck Luftfeuchtigkeit
    00:00 +11°C° 0 mm 4 m/S 752 mmHg 85%
    01:00 +10°C° 0 mm 4 m/S 752 mmHg 86%
    02:00 +10°C° 0 mm 4 m/S 752 mmHg 87%
    03:00 +10°C° 0 mm 4 m/S 752 mmHg 87%
    04:00 +8°C° 0 mm 4 m/S 752 mmHg 87%
    05:00 +8°C° 0 mm 4 m/S 752 mmHg 87%
    06:00 +11°C° 0 mm 4 m/S 752 mmHg 81%
    07:00 +13°C° 0 mm 4 m/S 753 mmHg 74%
    08:00 +14°C° 0 mm 5 m/S 753 mmHg 68%
    09:00 +15°C° 0 mm 5 m/S 753 mmHg 65%
    10:00 +16°C° 0 mm 5 m/S 753 mmHg 62%
    11:00 +17°C° 0 mm 5 m/S 753 mmHg 60%
    12:00 +19°C° 0.1 mm 4 m/S 753 mmHg 60%
    13:00 +19°C° 0.1 mm 4 m/S 753 mmHg 60%
    14:00 +19°C° 0.1 mm 4 m/S 752 mmHg 60%
    15:00 +19°C° 0.1 mm 4 m/S 752 mmHg 62%
    16:00 +19°C° 0.1 mm 4 m/S 752 mmHg 63%
    17:00 +19°C° 0.1 mm 4 m/S 752 mmHg 65%
    18:00 +17°C° 0 mm 3 m/S 752 mmHg 71%
    19:00 +14°C° 0 mm 3 m/S 752 mmHg 78%
    20:00 +13°C° 0 mm 3 m/S 752 mmHg 85%
    21:00 +12°C° 0 mm 3 m/S 752 mmHg 87%
    22:00 +12°C° 0 mm 2 m/S 752 mmHg 89%
    23:00 +10°C° 0 mm 2 m/S 753 mmHg 90%
    Mehr zeigen